Windsor, CA

10:49 PM PDT on September 24, 2016 (GMT -0700)
Sonoma County

Weather History for KSTS - February, 2014

Change the Weather History Date:

Thursday, February 13, 2014

  Actual Average Record
Temperature  
Mean Temperature 59 °F 50 °F  
Max Temperature 67 °F 60 °F 75 °F (2015)
Min Temperature 51 °F 39 °F 31 °F (2013)
Degree Days  
Heating Degree Days 6    
Month to date heating degree days 206  
Since 1 July heating degree days 1778  
Cooling Degree Days 0    
Month to date cooling degree days 0  
Year to date cooling degree days 0  
Growing Degree Days 8 (Base 50)    
Moisture  
Dew Point 53 °F    
Average Humidity 87    
Maximum Humidity 100    
Minimum Humidity 73    
Precipitation  
Precipitation 0.00 in 0.23 in 2.46 in (2000)
Month to date precipitation 7.09 2.76  
Year to date precipitation 7.19 9.81  
Since 1 July precipitation 9.21  
Sea Level Pressure  
Sea Level Pressure 30.15 in    
Wind  
Wind Speed 3 mph (South)    
Max Wind Speed 8 mph    
Max Gust Speed 8 mph    
Visibility 6 miles    
Events Fog    
T = Trace of Precipitation, MM = Missing Value Source: NWS Daily Summary

Daily Weather History Graph

Daily Weather History Graph

Search for Another Location

Airport or City:

Trip Planner

Search our weather history database for the weather conditions in past years. The results will help you decide how hot, cold, wet, or windy it might be!

Date:

Astronomy

Feb. 13, 2014 Rise Set
Actual Time 7:04 AM PST 5:47 PM PST
Civil Twilight 6:36 AM PST 6:14 PM PST
Nautical Twilight 6:05 AM PST 6:45 PM PST
Astronomical Twilight 5:35 AM PST 7:16 PM PST
Moon 5:00 PM PST (2/13) 6:00 AM PST (2/13)
Length of Visible Light 11h 37m
Length of Day
10h 43m
Waxing Gibbous, 99% of the Moon is Illuminated
Feb 13
Waxing Gibbous
Feb 14
Full
Feb 22
Last Quarter
Mar 1
New
Mar 8
First Quarter

Hourly Weather History & Observations

Time (PST) Temp. Dew Point Humidity Pressure Visibility Wind Dir Wind Speed Gust Speed Precip Events Conditions
12:19 AM 52.0 °F 52.0 °F 100% 30.21 in 3.0 mi Calm Calm - N/A   Overcast
12:45 AM 52.0 °F 52.0 °F 100% 30.21 in 2.0 mi Calm Calm - N/A   Overcast
12:53 AM 52.0 °F 52.0 °F 100% 30.19 in 2.0 mi Calm Calm - N/A   Overcast
1:06 AM 52.0 °F 52.0 °F 100% 30.20 in 1.5 mi SSE 3.5 mph - N/A   Overcast
1:45 AM 52.0 °F 52.0 °F 100% 30.19 in 3.0 mi Calm Calm - N/A   Overcast
1:53 AM 52.0 °F 52.0 °F 100% 30.18 in 3.0 mi Calm Calm - N/A   Overcast
2:19 AM 52.0 °F 52.0 °F 100% 30.20 in 8.0 mi Calm Calm - N/A   Overcast
2:53 AM 52.0 °F 51.1 °F 97% 30.17 in 10.0 mi Calm Calm - N/A   Overcast
3:53 AM 52.0 °F 51.1 °F 97% 30.16 in 10.0 mi Calm Calm - N/A   Overcast
4:13 AM 52.0 °F 51.1 °F 97% 30.18 in 10.0 mi Calm Calm - N/A   Overcast
4:53 AM 52.0 °F 51.1 °F 97% 30.16 in 6.0 mi Calm Calm - N/A   Overcast
5:53 AM 51.1 °F 51.1 °F 100% 30.15 in 1.8 mi Calm Calm - N/A   Overcast
6:19 AM 51.1 °F 51.1 °F 100% 30.16 in 0.5 mi Calm Calm - N/A Fog Fog
6:53 AM 51.1 °F 51.1 °F 100% 30.16 in 0.1 mi NNW 3.5 mph - N/A Fog Fog
7:53 AM 51.1 °F 51.1 °F 100% 30.13 in 0.2 mi Calm Calm - N/A Fog Fog
8:53 AM 52.0 °F 52.0 °F 100% 30.16 in 0.2 mi WNW 5.8 mph - N/A Fog Fog
9:21 AM 52.0 °F 52.0 °F 100% 30.20 in 0.5 mi WNW 3.5 mph - N/A Fog Fog
9:53 AM 53.1 °F 52.0 °F 96% 30.19 in 4.0 mi North 4.6 mph - N/A   Overcast
10:21 AM 53.1 °F 52.0 °F 96% 30.22 in 6.0 mi North 3.5 mph - N/A   Overcast
10:53 AM 55.9 °F 53.1 °F 90% 30.21 in 7.0 mi Calm Calm - N/A   Overcast
11:31 AM 57.9 °F 54.0 °F 87% 30.21 in 8.0 mi SSW 4.6 mph - N/A   Mostly Cloudy
11:53 AM 59.0 °F 54.0 °F 83% 30.19 in 10.0 mi Variable 3.5 mph - N/A   Mostly Cloudy
12:53 PM 60.1 °F 55.0 °F 83% 30.13 in 10.0 mi Variable 5.8 mph - N/A   Mostly Cloudy
1:53 PM 63.0 °F 55.9 °F 78% 30.12 in 10.0 mi Calm Calm - N/A   Mostly Cloudy
2:53 PM 64.9 °F 57.0 °F 75% 30.09 in 10.0 mi SW 4.6 mph - N/A   Mostly Cloudy
3:34 PM 64.9 °F 57.0 °F 75% 30.10 in 10.0 mi South 5.8 mph - N/A   Mostly Cloudy
3:53 PM 64.9 °F 57.0 °F 75% 30.09 in 10.0 mi SW 3.5 mph - N/A   Mostly Cloudy
4:53 PM 66.0 °F 57.0 °F 73% 30.08 in 10.0 mi Calm Calm - N/A   Mostly Cloudy
5:53 PM 62.1 °F 57.0 °F 84% 30.07 in 10.0 mi SSE 3.5 mph - N/A   Mostly Cloudy
6:53 PM 59.0 °F 55.9 °F 90% 30.08 in 10.0 mi South 4.6 mph - N/A   Clear
7:53 PM 57.0 °F 55.0 °F 93% 30.09 in 10.0 mi SSE 4.6 mph - N/A   Clear
8:53 PM 55.0 °F 54.0 °F 96% 30.09 in 10.0 mi SE 5.8 mph - N/A   Clear
9:49 PM 55.4 °F 53.6 °F 94% 30.11 in 10.0 mi SSE 4.6 mph - N/A   Scattered Clouds
9:53 PM 55.0 °F 54.0 °F 96% 30.09 in 10.0 mi SE 4.6 mph - N/A   Mostly Cloudy
10:25 PM 54.0 °F 54.0 °F 100% 30.11 in 10.0 mi SSE 4.6 mph - N/A   Overcast
10:29 PM 54.0 °F 54.0 °F 100% 30.11 in 2.5 mi SSE 6.9 mph - N/A   Overcast
10:32 PM 54.0 °F 54.0 °F 100% 30.11 in 0.8 mi SSE 5.8 mph - N/A   Overcast
10:53 PM 53.1 °F 53.1 °F 100% 30.11 in 0.2 mi South 3.5 mph - N/A Fog Fog
11:27 PM 53.1 °F 53.1 °F 100% 30.13 in 0.5 mi SSE 4.6 mph - N/A Fog Fog
11:53 PM 53.1 °F 53.1 °F 100% 30.11 in 0.8 mi SE 5.8 mph - N/A   Mist